Buena Vista, CO

9:24 PM MDT on April 21, 2018 (GMT -0600)
Buena Vista

Weather History for KAEJ - March, 2014

Change the Weather History Date:

Sunday, March 16, 2014

  Actual Average (KLXV) Record (KLXV)
Temperature  
Mean Temperature 38 °F -  
Max Temperature 52 °F 35 °F 57 °F (2015)
Min Temperature 24 °F 16 °F -2 °F (1986)
Degree Days  
Heating Degree Days 27    
Moisture  
Dew Point 8 °F    
Average Humidity 32    
Maximum Humidity 51    
Minimum Humidity 14    
Precipitation  
Precipitation 0.00 in - - ()
Sea Level Pressure  
Sea Level Pressure 30.24 in    
Wind  
Wind Speed 19 mph (NW)    
Max Wind Speed 31 mph    
Max Gust Speed 41 mph    
Visibility 10 miles    
Events      
Averages and records for this station are not official NWS values.
T = Trace of Precipitation, MM = Missing Value Source: NWS Daily Summary

Daily Weather History Graph

Daily Weather History Graph

Search for Another Location

Airport or City:

Astronomy

Mar. 16, 2014 Rise Set
Actual Time 7:14 AM MDT 7:12 PM MDT
Civil Twilight 6:47 AM MDT 7:39 PM MDT
Nautical Twilight 6:16 AM MDT 8:10 PM MDT
Astronomical Twilight 5:45 AM MDT 8:41 PM MDT
Moon 7:32 PM MDT (3/16) 6:59 AM MDT (3/16)
Length of Visible Light 12h 51m
Length of Day
11h 58m
Full, 100% of the Moon is Illuminated
Mar 16
Full
Mar 23
Last Quarter
Mar 30
New
Apr 7
First Quarter
Apr 15
Full

Hourly Weather History & Observations

Time (MDT) Temp. Windchill Dew Point Humidity Pressure Visibility Wind Dir Wind Speed Gust Speed Precip Events Conditions
12:15 AM 26.4 °F 13.2 °F 9.5 °F 49% 30.31 in 10.0 mi NNW 18.4 mph 25.3 mph N/A   Clear
12:35 AM 26.2 °F 13.4 °F 9.3 °F 49% 30.31 in 10.0 mi NNW 17.3 mph 24.2 mph N/A   Clear
12:55 AM 26.1 °F 12.7 °F 9.5 °F 50% 30.31 in 10.0 mi NNW 18.4 mph 23.0 mph N/A   Clear
1:15 AM 26.6 °F 12.7 °F 9.3 °F 48% 30.31 in 10.0 mi NNW 20.7 mph 29.9 mph N/A   Clear
1:35 AM 26.4 °F 11.2 °F 9.1 °F 48% 30.30 in 10.0 mi NW 25.3 mph 28.8 mph N/A   Clear
1:55 AM 25.7 °F 11.5 °F 9.1 °F 50% 30.31 in 10.0 mi NW 20.7 mph 26.5 mph N/A   Clear
2:15 AM 25.3 °F 14.7 °F 9.0 °F 50% 30.32 in 10.0 mi NW 11.5 mph - N/A   Clear
2:35 AM 25.3 °F 10.3 °F 9.0 °F 50% 30.32 in 10.0 mi NW 23.0 mph 26.5 mph N/A   Clear
2:55 AM 25.7 °F 11.5 °F 8.6 °F 48% 30.31 in 10.0 mi NNW 20.7 mph 25.3 mph N/A   Clear
3:15 AM 24.6 °F 11.3 °F 8.6 °F 51% 30.31 in 10.0 mi NNW 17.3 mph 24.2 mph N/A   Clear
3:35 AM 24.8 °F 10.0 °F 8.4 °F 50% 30.30 in 10.0 mi NNW 21.9 mph 25.3 mph N/A   Clear
3:55 AM 25.3 °F 10.0 °F 8.4 °F 49% 30.29 in 10.0 mi NW 24.2 mph 28.8 mph N/A   Clear
4:15 AM 25.5 °F 10.3 °F 8.6 °F 49% 30.28 in 10.0 mi NNW 24.2 mph 29.9 mph N/A   Clear
4:35 AM 26.2 °F 13.0 °F 8.1 °F 46% 30.28 in 10.0 mi NNW 18.4 mph 26.5 mph N/A   Clear
4:55 AM 27.1 °F 11.8 °F 7.9 °F 44% 30.29 in 10.0 mi NW 26.5 mph 36.8 mph N/A   Clear
5:15 AM 26.6 °F 11.7 °F 8.2 °F 46% 30.30 in 10.0 mi NNW 24.2 mph 31.1 mph N/A   Clear
5:35 AM 26.6 °F 13.4 °F 8.1 °F 46% 30.28 in 10.0 mi North 18.4 mph - N/A   Clear
5:55 AM 27.3 °F 14.4 °F 7.0 °F 42% 30.28 in 10.0 mi NNW 18.4 mph 35.7 mph N/A   Clear
6:15 AM 27.0 °F 12.8 °F 7.5 °F 44% 30.27 in 10.0 mi NNW 21.9 mph 32.2 mph N/A   Clear
6:35 AM 26.8 °F 11.9 °F 7.3 °F 44% 30.26 in 10.0 mi NNW 24.2 mph 31.1 mph N/A   Clear
6:55 AM 26.6 °F 14.7 °F 7.2 °F 44% 30.28 in 10.0 mi North 15.0 mph 24.2 mph N/A   Clear
7:15 AM 26.8 °F 22.8 °F 6.4 °F 42% 30.29 in 10.0 mi NE 3.5 mph - N/A   Clear
7:35 AM 26.4 °F 19.8 °F 6.6 °F 43% 30.28 in 10.0 mi WSW 5.8 mph - N/A   Clear
7:55 AM 27.7 °F 13.5 °F 6.6 °F 41% 30.29 in 10.0 mi NW 23.0 mph 29.9 mph N/A   Clear
8:15 AM 28.8 °F 14.3 °F 5.9 °F 38% 30.30 in 10.0 mi NNW 25.3 mph 36.8 mph N/A   Clear
8:35 AM 30.2 °F 16.2 °F 5.9 °F 36% 30.30 in 10.0 mi NNW 25.3 mph 36.8 mph N/A   Clear
8:55 AM 31.6 °F 19.3 °F 6.1 °F 34% 30.31 in 10.0 mi NNW 20.7 mph 38.0 mph N/A   Clear
9:15 AM 33.4 °F 20.8 °F 6.3 °F 32% 30.31 in 10.0 mi NNW 24.2 mph 36.8 mph N/A   Clear
9:35 AM 34.3 °F 21.5 °F 6.6 °F 31% 30.30 in 10.0 mi NNW 26.5 mph 39.1 mph N/A   Clear
9:55 AM 35.8 °F 22.5 °F 7.2 °F 30% 30.29 in 10.0 mi NW 31.1 mph 41.4 mph N/A   Clear
10:15 AM 37.4 °F 25.4 °F 7.7 °F 29% 30.29 in 10.0 mi NW 27.6 mph 35.7 mph N/A   Clear
10:35 AM 39.2 °F 27.6 °F 8.2 °F 28% 30.29 in 10.0 mi NW 28.8 mph 36.8 mph N/A   Clear
10:55 AM 39.9 °F 29.5 °F 8.4 °F 27% 30.29 in 10.0 mi NNW 24.2 mph 40.3 mph N/A   Clear
11:15 AM 41.2 °F 29.9 °F 8.8 °F 26% 30.28 in 10.0 mi NNW 31.1 mph 39.1 mph N/A   Clear
11:35 AM 43.3 °F 33.4 °F 9.5 °F 25% 30.27 in 10.0 mi NW 27.6 mph 38.0 mph N/A   Clear
11:55 AM 45.0 °F 36.0 °F 9.5 °F 24% 30.26 in 10.0 mi NW 25.3 mph 36.8 mph N/A   Clear
12:15 PM 46.0 °F 36.7 °F 9.5 °F 23% 30.26 in 10.0 mi NW 29.9 mph 39.1 mph N/A   Clear
12:35 PM 46.8 °F - 9.7 °F 22% 30.26 in 10.0 mi NW 27.6 mph 36.8 mph N/A   Clear
12:55 PM 48.6 °F - 10.4 °F 21% 30.25 in 10.0 mi NW 28.8 mph 36.8 mph N/A   Clear
1:15 PM 48.9 °F - 10.2 °F 21% 30.24 in 10.0 mi NW 28.8 mph 41.4 mph N/A   Clear
1:35 PM 49.6 °F - 8.8 °F 19% 30.23 in 10.0 mi NW 25.3 mph 36.8 mph N/A   Clear
1:55 PM 50.4 °F - 8.2 °F 18% 30.23 in 10.0 mi WNW 24.2 mph 34.5 mph N/A   Clear
2:15 PM 51.8 °F - 8.6 °F 18% 30.22 in 10.0 mi NW 18.4 mph 27.6 mph N/A   Clear
2:35 PM 51.6 °F - 7.9 °F 17% 30.19 in 10.0 mi NW 23.0 mph 34.5 mph N/A   Clear
2:55 PM 52.5 °F - 7.3 °F 16% 30.19 in 10.0 mi NNW 26.5 mph 35.7 mph N/A   Clear
3:15 PM 52.2 °F - 7.7 °F 17% 30.18 in 10.0 mi NW 24.2 mph 29.9 mph N/A   Clear
3:35 PM 52.7 °F - 6.1 °F 15% 30.19 in 10.0 mi NW 24.2 mph 29.9 mph N/A   Clear
3:55 PM 52.7 °F - 3.9 °F 14% 30.19 in 10.0 mi NW 21.9 mph 32.2 mph N/A   Clear
4:15 PM 52.7 °F - 4.3 °F 14% 30.19 in 10.0 mi NNW 25.3 mph 31.1 mph N/A   Clear
4:35 PM 51.1 °F - 5.4 °F 16% 30.18 in 10.0 mi NNW 23.0 mph 29.9 mph N/A   Clear
4:55 PM 52.0 °F - 5.0 °F 15% 30.17 in 10.0 mi North 16.1 mph 25.3 mph N/A   Clear
5:15 PM 52.0 °F - 4.3 °F 14% 30.16 in 10.0 mi NNW 12.7 mph 24.2 mph N/A   Clear
5:35 PM 52.3 °F - 3.9 °F 14% 30.17 in 10.0 mi NNW 15.0 mph 20.7 mph N/A   Scattered Clouds
5:55 PM 50.4 °F - 2.3 °F 14% 30.17 in 10.0 mi North 16.1 mph 24.2 mph N/A   Scattered Clouds
6:15 PM 49.8 °F - 2.1 °F 14% 30.16 in 10.0 mi NNW 21.9 mph 31.1 mph N/A   Clear
6:35 PM 48.0 °F - 2.3 °F 15% 30.16 in 10.0 mi NW 9.2 mph 25.3 mph N/A   Clear
6:55 PM 46.4 °F 42.4 °F 3.7 °F 17% 30.16 in 10.0 mi NW 8.1 mph - N/A   Clear
7:15 PM 44.4 °F 39.0 °F 5.5 °F 20% 30.17 in 10.0 mi NW 10.4 mph 16.1 mph N/A   Clear
7:35 PM 43.2 °F 35.9 °F 8.1 °F 24% 30.17 in 10.0 mi NW 15.0 mph 21.9 mph N/A   Clear
7:55 PM 42.6 °F 37.2 °F 7.7 °F 24% 30.17 in 10.0 mi NW 9.2 mph 21.9 mph N/A   Clear
8:15 PM 41.7 °F 39.8 °F 7.7 °F 25% 30.17 in 10.0 mi WNW 3.5 mph 17.3 mph N/A   Clear
8:35 PM 40.6 °F 34.3 °F 7.9 °F 26% 30.17 in 10.0 mi WNW 10.4 mph - N/A   Clear
8:55 PM 39.4 °F 34.5 °F 8.1 °F 27% 30.19 in 10.0 mi NW 6.9 mph - N/A   Clear
9:15 PM 40.1 °F 34.1 °F 8.2 °F 27% 30.20 in 10.0 mi North 9.2 mph - N/A   Clear
9:35 PM 37.6 °F 34.0 °F 8.6 °F 30% 30.20 in 10.0 mi NW 4.6 mph - N/A   Clear
9:55 PM 37.6 °F 31.0 °F 10.4 °F 33% 30.19 in 10.0 mi WNW 9.2 mph - N/A   Clear
10:15 PM 38.3 °F 31.4 °F 10.2 °F 31% 30.19 in 10.0 mi North 10.4 mph - N/A   Clear
10:35 PM 35.8 °F 31.9 °F 10.4 °F 35% 30.18 in 10.0 mi NW 4.6 mph - N/A   Clear
10:55 PM 32.2 °F 25.0 °F 11.1 °F 42% 30.17 in 10.0 mi NNW 8.1 mph - N/A   Clear
11:15 PM 33.4 °F - 11.7 °F 41% 30.16 in 10.0 mi Calm Calm - N/A   Clear
11:35 PM 34.3 °F 28.4 °F 12.4 °F 40% 30.15 in 10.0 mi West 6.9 mph - N/A   Clear
11:55 PM 37.4 °F 29.8 °F 10.6 °F 33% 30.13 in 10.0 mi NNW 11.5 mph - N/A   Clear